Total_Precipitation_Accumulation
3.04 3.25 3.19 2.99 3.04 3.13 3.38 3.69 3.78 3.50 3.31 3.11 2.78 2.65 2.72 2.75 2.87 2.71 2.77 2.67 2.20 1.92 1.84 1.86 1.85 1.84 1.93 2.09 2.33 2.63 2.83 2.92 3.07 3.35 3.74 4.12 4.44 4.79
3.29 3.36 3.21 2.94 3.12 3.12 3.23 3.59 3.92 3.99 3.61 3.05 2.81 2.71 2.81 2.62 2.66 2.39 2.42 2.32 1.97 1.77 1.65 1.62 1.56 1.53 1.55 1.62 1.75 2.02 2.22 2.39 2.56 2.68 2.88 3.15 3.45 3.70
3.18 3.10 3.01 3.06 3.26 3.18 3.31 3.47 3.73 4.00 3.65 3.16 3.00 2.97 3.07 2.98 2.81 2.43 2.13 1.98 1.82 1.87 1.70 1.54 1.45 1.44 1.50 1.59 1.65 1.76 1.93 2.13 2.31 2.45 2.61 2.80 2.94 3.10
3.12 3.12 2.97 3.10 3.20 3.18 3.26 3.23 3.35 3.71 3.57 3.28 3.18 3.23 3.16 3.01 2.92 2.71 2.28 2.05 2.05 2.13 1.88 1.69 1.56 1.51 1.47 1.48 1.57 1.66 1.78 1.92 2.07 2.16 2.21 2.26 2.42 2.69
3.09 3.01 2.88 3.00 2.89 2.96 3.01 3.01 3.01 3.15 3.37 3.24 3.08 3.18 3.10 2.98 2.97 2.82 2.68 2.75 2.47 2.26 2.08 1.86 1.69 1.60 1.55 1.48 1.52 1.61 1.71 1.76 1.76 1.90 2.04 2.13 2.19 2.27
2.72 2.65 2.68 2.83 2.90 2.92 2.82 2.80 2.88 3.04 3.16 3.18 3.11 3.20 3.22 3.25 3.18 3.05 3.04 2.97 2.75 2.24 2.13 1.89 1.73 1.59 1.51 1.43 1.45 1.60 1.72 1.77 1.79 1.76 1.83 1.94 2.04 2.14
2.44 2.28 2.32 2.67 2.82 2.80 2.59 2.72 2.82 2.88 2.95 3.09 3.11 3.18 3.27 3.52 3.34 3.09 3.01 3.10 2.92 2.62 2.40 2.09 1.92 1.76 1.67 1.60 1.52 1.51 1.53 1.63 1.74 1.86 2.00 2.11 2.18 2.24
2.18 2.14 2.13 2.21 2.26 2.31 2.33 2.37 2.46 2.53 2.75 3.08 3.14 3.10 3.07 3.18 3.33 3.31 3.26 3.19 3.07 2.89 2.90 2.71 2.35 2.25 2.08 1.88 1.75 1.49 1.32 1.36 1.52 1.66 1.93 2.20 2.46 2.54
2.15 2.22 1.92 1.73 1.94 1.96 2.14 2.15 2.07 2.18 2.35 2.64 2.83 2.82 2.95 2.98 3.31 3.35 3.41 3.42 3.33 3.25 3.25 3.20 2.83 2.50 2.19 2.06 1.97 1.59 1.41 1.33 1.38 1.49 1.63 1.87 2.18 2.52
2.04 2.08 2.03 1.91 1.89 2.04 2.16 2.09 1.93 1.90 1.93 1.90 2.10 2.40 2.69 3.01 3.13 3.22 3.37 3.45 3.44 3.25 3.14 3.15 2.91 2.71 2.34 2.06 1.93 1.71 1.51 1.35 1.31 1.38 1.41 1.48 1.64 1.91
1.98 1.93 1.89 1.82 1.95 1.88 1.83 1.82 1.83 1.83 1.73 1.74 1.79 2.02 2.28 2.40 2.62 2.89 3.12 3.14 3.03 2.81 2.64 2.71 2.71 2.72 2.64 2.37 2.00 1.87 1.64 1.44 1.37 1.37 1.34 1.34 1.43 1.55
1.97 1.92 1.82 1.67 1.71 1.64 1.56 1.69 1.69 1.72 1.83 1.79 1.67 1.65 1.73 1.94 2.09 2.16 2.50 2.75 2.61 2.51 2.25 2.22 2.18 2.38 2.57 2.28 1.96 1.87 1.82 1.68 1.51 1.45 1.42 1.38 1.42 1.32
1.99 1.91 1.84 1.74 1.55 1.52 1.48 1.50 1.58 1.66 1.77 1.83 1.78 1.68 1.77 1.92 1.90 1.88 2.10 2.40 2.49 2.24 2.06 2.25 2.16 2.14 2.15 2.02 1.86 1.71 1.74 1.86 1.81 1.67 1.59 1.55 1.54 1.48
2.14 2.09 2.01 1.83 1.60 1.54 1.44 1.41 1.43 1.36 1.35 1.53 1.59 1.55 1.60 1.71 1.80 1.82 1.92 2.04 2.18 2.14 2.18 2.33 2.33 2.29 2.21 2.03 1.86 1.68 1.57 1.64 1.81 2.03 2.12 2.15 1.97 1.89
2.14 2.25 2.02 1.79 1.62 1.44 1.44 1.48 1.38 1.26 1.32 1.38 1.39 1.40 1.41 1.53 1.78 1.98 2.09 2.19 2.19 1.99 1.85 1.95 2.09 2.28 2.35 2.09 1.81 1.72 1.73 1.67 1.72 1.95 2.12 2.20 2.23 2.24
2.01 2.12 2.00 1.82 1.67 1.52 1.48 1.45 1.36 1.38 1.49 1.46 1.46 1.52 1.57 1.66 1.78 1.88 2.04 2.21 2.23 1.95 1.84 1.88 2.02 2.26 2.29 2.07 1.92 1.79 1.85 1.92 1.80 1.95 2.20 2.28 2.28 2.32
2.20 2.16 2.10 1.95 1.80 1.68 1.63 1.65 1.70 1.70 1.67 1.67 1.71 1.72 1.72 1.75 1.83 1.93 2.05 2.15 2.12 1.90 1.76 1.88 2.02 2.27 2.31 2.28 2.16 1.88 1.86 1.88 1.85 1.97 2.24 2.30 2.27 2.29
2.19 2.06 2.15 2.09 1.95 1.85 1.82 1.82 1.84 1.80 1.79 1.85 1.83 1.80 1.77 1.79 1.85 1.93 1.99 1.99 1.99 1.96 1.89 1.89 2.11 2.34 2.42 2.21 1.90 1.78 1.73 1.68 1.81 2.05 2.16 2.16 1.97 1.90
1.83 1.84 1.96 1.98 1.88 1.84 1.81 1.79 1.74 1.80 1.89 1.84 1.81 1.83 1.84 1.83 1.91 1.98 2.04 2.08 2.03 1.99 1.99 2.06 2.15 2.24 2.22 1.97 1.70 1.54 1.62 1.66 1.80 1.95 2.00 1.97 1.83 1.78
1.59 1.66 1.72 1.80 1.82 1.83 1.85 1.86 1.80 1.81 1.84 1.83 1.81 1.83 1.87 1.87 1.92 1.94 1.92 1.99 2.10 2.13 2.14 2.06 2.03 2.04 2.01 2.00 1.92 1.70 1.57 1.74 1.89 1.88 1.83 1.83 1.80 1.78
1.45 1.50 1.55 1.57 1.62 1.68 1.69 1.76 1.78 1.76 1.77 1.81 1.78 1.80 1.85 1.87 1.91 1.91 1.90 1.98 2.04 2.08 2.08 1.95 1.94 2.16 2.27 2.32 2.13 1.85 1.78 1.82 1.92 1.94 1.95 2.00 1.90 1.82
1.47 1.49 1.46 1.47 1.52 1.60 1.67 1.75 1.77 1.80 1.85 1.86 1.84 1.86 1.90 1.94 1.94 1.97 1.99 2.01 2.01 2.01 2.02 2.05 2.16 2.33 2.42 2.34 2.14 2.04 2.09 2.07 2.09 2.06 1.93 1.91 1.79 1.62
1.44 1.43 1.42 1.42 1.45 1.55 1.64 1.70 1.77 1.84 1.85 1.88 1.94 1.93 1.87 1.86 1.86 1.92 1.95 1.99 2.05 2.11 2.22 2.23 2.20 2.21 2.23 2.25 2.21 2.13 2.06 2.11 2.17 2.12 1.90 1.79 1.64 1.42